TimeAEST,TemperatureF,Dew PointF,Humidity,Sea Level PressureIn,VisibilityMPH,Wind Direction,Wind SpeedMPH,Gust SpeedMPH,PrecipitationIn,Events,Conditions,WindDirDegrees,DateUTC
12:00 AM,76,67,66,30.02,,South,5.8,,,,,180,2013-10-01 14:00:00
12:00 AM,75.2,66.2,73,30.01,6.2,South,5.8,-,N/A,,Scattered Clouds,180,2013-10-01 14:00:00
12:30 AM,75.2,66.2,73,30.01,6.2,South,3.5,-,N/A,,Scattered Clouds,190,2013-10-01 14:30:00
1:00 AM,74,67,73,30.01,,South,3.5,,,,,180,2013-10-01 15:00:00
1:00 AM,73.4,66.2,78,29.98,6.2,South,3.5,-,N/A,,Partly Cloudy,180,2013-10-01 15:00:00
1:30 AM,73.4,66.2,78,29.98,6.2,SSE,4.6,-,N/A,,Partly Cloudy,150,2013-10-01 15:30:00
2:00 AM,71.6,66.2,83,29.98,6.2,SSE,3.5,-,N/A,,Partly Cloudy,160,2013-10-01 16:00:00
2:30 AM,71.6,66.2,83,29.95,6.2,SSE,4.6,-,N/A,,Partly Cloudy,150,2013-10-01 16:30:00
3:00 AM,72,67,80,29.96,,SE,8.1,,,,,140,2013-10-01 17:00:00
3:00 AM,71.6,68.0,88,29.95,6.2,SE,8.1,-,N/A,,Partly Cloudy,140,2013-10-01 17:00:00
3:30 AM,71.6,66.2,83,29.95,6.2,SSE,5.8,-,N/A,,Partly Cloudy,150,2013-10-01 17:30:00
4:00 AM,74,66,70,29.96,,South,6.9,,,,,190,2013-10-01 18:00:00
4:00 AM,73.4,66.2,78,29.95,6.2,South,6.9,-,N/A,,Partly Cloudy,190,2013-10-01 18:00:00
4:30 AM,71.6,66.2,83,29.95,6.2,SE,6.9,-,N/A,,Partly Cloudy,140,2013-10-01 18:30:00
5:00 AM,69.8,66.2,88,29.95,6.2,SE,11.5,-,N/A,,Partly Cloudy,130,2013-10-01 19:00:00
5:30 AM,69.8,66.2,88,29.95,6.2,SE,9.2,-,N/A,,Partly Cloudy,140,2013-10-01 19:30:00
6:00 AM,71,66,80,29.97,19,SE,10.4,,,,Partly Cloudy,140,2013-10-01 20:00:00
6:00 AM,71.6,66.2,83,29.95,6.2,SE,10.4,-,N/A,,Partly Cloudy,140,2013-10-01 20:00:00
6:30 AM,69.8,66.2,88,29.98,6.2,North,6.9,-,N/A,,Partly Cloudy,350,2013-10-01 20:30:00
7:00 AM,73,66,73,29.99,,SE,11.5,,,,,140,2013-10-01 21:00:00
7:00 AM,73.4,66.2,78,29.98,6.2,SE,11.5,-,N/A,,Partly Cloudy,140,2013-10-01 21:00:00
7:30 AM,75.2,66.2,73,29.98,6.2,SE,10.4,-,N/A,,Partly Cloudy,130,2013-10-01 21:30:00
8:00 AM,78.8,66.2,65,29.98,6.2,SSE,9.2,-,N/A,,Partly Cloudy,160,2013-10-01 22:00:00
8:30 AM,78.8,64.4,61,30.01,6.2,SSE,9.2,-,N/A,,Partly Cloudy,160,2013-10-01 22:30:00
9:00 AM,81,64,47,30.00,19,SSE,6.9,,,,Partly Cloudy,150,2013-10-01 23:00:00
9:00 AM,80.6,64.4,58,29.98,6.2,SSE,6.9,-,N/A,,Partly Cloudy,150,2013-10-01 23:00:00
9:30 AM,82.4,64.4,54,29.98,6.2,SSE,6.9,-,N/A,,Partly Cloudy,150,2013-10-01 23:30:00
10:00 AM,84,66,46,30.01,,East,8.1,,,,,100,2013-10-02 00:00:00
10:00 AM,84.2,66.2,55,30.01,6.2,East,8.1,-,N/A,,Partly Cloudy,100,2013-10-02 00:00:00
10:30 AM,82.4,66.2,58,30.01,6.2,ENE,11.5,-,N/A,,Partly Cloudy,60,2013-10-02 00:30:00
11:00 AM,84.2,64.4,51,29.98,6.2,ESE,10.4,-,N/A,,Partly Cloudy,110,2013-10-02 01:00:00
11:30 AM,86.0,64.4,48,29.98,6.2,ESE,10.4,-,N/A,,Partly Cloudy,120,2013-10-02 01:30:00
12:00 PM,84,63,38,29.97,19,East,13.8,,,,Partly Cloudy,90,2013-10-02 02:00:00
12:00 PM,84.2,62.6,48,29.98,6.2,East,13.8,-,N/A,,Partly Cloudy,90,2013-10-02 02:00:00
12:30 PM,86.0,62.6,45,29.95,6.2,ESE,15.0,-,N/A,,Partly Cloudy,110,2013-10-02 02:30:00
1:00 PM,86,63,36,29.95,,East,15.0,,,,,90,2013-10-02 03:00:00
1:00 PM,86.0,62.6,45,29.92,6.2,East,15.0,-,N/A,,Partly Cloudy,90,2013-10-02 03:00:00
1:30 PM,87.8,64.4,46,29.92,6.2,East,18.4,-,N/A,,Partly Cloudy,80,2013-10-02 03:30:00
2:00 PM,86.0,66.2,51,29.92,6.2,East,17.3,-,N/A,,Partly Cloudy,80,2013-10-02 04:00:00
2:30 PM,86.0,66.2,51,29.92,6.2,East,17.3,-,N/A,,Partly Cloudy,80,2013-10-02 04:30:00
3:00 PM,83,66,46,29.91,19,ENE,15.0,,,,Partly Cloudy,70,2013-10-02 05:00:00
3:00 PM,84.2,66.2,55,29.92,6.2,ENE,15.0,-,N/A,,Scattered Clouds,70,2013-10-02 05:00:00
3:30 PM,82.4,66.2,58,29.89,6.2,East,12.7,-,N/A,,Scattered Clouds,90,2013-10-02 05:30:00
4:00 PM,82,67,51,29.92,,East,12.7,,,,,90,2013-10-02 06:00:00
4:00 PM,82.4,66.2,58,29.89,6.2,East,12.7,-,N/A,,Scattered Clouds,90,2013-10-02 06:00:00
4:30 PM,82.4,66.2,58,29.89,6.2,East,12.7,-,N/A,,Mostly Cloudy,100,2013-10-02 06:30:00
5:00 PM,80.6,66.2,61,29.92,6.2,East,10.4,-,N/A,,Mostly Cloudy,100,2013-10-02 07:00:00
5:30 PM,80.6,66.2,61,29.92,6.2,ESE,8.1,-,N/A,,Mostly Cloudy,110,2013-10-02 07:30:00
6:00 PM,78,67,62,29.92,,SSE,9.2,,,,Overcast,150,2013-10-02 08:00:00
6:00 PM,78.8,68.0,69,29.92,6.2,SSE,9.2,-,N/A,,Scattered Clouds,150,2013-10-02 08:00:00
6:30 PM,77.0,68.0,74,29.92,6.2,ESE,6.9,-,N/A,,Scattered Clouds,120,2013-10-02 08:30:00
7:00 PM,78,67,61,29.94,,ESE,10.4,,,,,110,2013-10-02 09:00:00
7:00 PM,78.8,66.2,65,29.92,6.2,ESE,10.4,-,N/A,,Scattered Clouds,110,2013-10-02 09:00:00
7:30 PM,77.0,66.2,69,29.95,6.2,ESE,8.1,-,N/A,,Scattered Clouds,120,2013-10-02 09:30:00
8:00 PM,75.2,68.0,78,29.95,6.2,SE,8.1,-,N/A,,Scattered Clouds,140,2013-10-02 10:00:00
8:30 PM,77.0,66.2,69,29.95,6.2,SSE,8.1,-,N/A,,Scattered Clouds,150,2013-10-02 10:30:00
9:00 PM,76,67,66,29.98,,South,5.8,,,,,170,2013-10-02 11:00:00
9:00 PM,75.2,66.2,73,29.98,6.2,South,5.8,-,N/A,,Scattered Clouds,170,2013-10-02 11:00:00
9:30 PM,75.2,66.2,73,29.98,6.2,South,8.1,-,N/A,,Mostly Cloudy,170,2013-10-02 11:30:00
10:00 PM,75,67,69,29.99,,South,6.9,,,,,170,2013-10-02 12:00:00
10:00 PM,75.2,66.2,73,29.98,6.2,South,6.9,-,N/A,,Partly Cloudy,170,2013-10-02 12:00:00
10:30 PM,75.2,66.2,73,29.98,6.2,South,4.6,-,N/A,,Partly Cloudy,190,2013-10-02 12:30:00
11:00 PM,75.2,66.2,73,29.98,6.2,SSW,4.6,-,N/A,,Mostly Cloudy,200,2013-10-02 13:00:00
11:30 PM,75.2,66.2,73,29.98,6.2,Calm,Calm,-,N/A,,Mostly Cloudy,0,2013-10-02 13:30:00